sat.trackr.live / text

‹ back to catalog

STARLINK-5491

NORAD 55332 · 2023-013B

PAYLOAD ACTIVE UNKNOWN

§ Identity

Operator
Country
US
Launch date
2023-01-26
Launch site
AFETR
Launch vehicle
Mass (kg)
RCS (m²)

Purposes: comms

External: N2YO · Heavens-Above · Gunter

§ Orbital elements

Epoch: 2026-09-19T17:13:10.487136Z

Period
94.27 min
Inclination
43.0025°
Eccentricity
0.0001271
Mean motion
15.27576257 rev/d
Perigee alt
482.2 km
Apogee alt
483.9 km
Semi-major
6,861.2 km
B*
4.7531e-6
RAAN
273.2465°
Arg perigee
265.7631°
Mean anomaly
94.3075°
Rev number
20,151

§ Raw data

STARLINK-54911 55332U 23013B   26262.71748249 -.00000131  00000+0  47531-5 0  99972 55332  43.0025 273.2465 0001271 265.7631  94.3075 15.27576257201518

JSON: /api/v1/satellites/55332 · /tle

For live sub-satellite position, see the globe view (requires WebGL).

§ Visibility from observer

Set your observer location to see the next 7 days of passes ≥ 10°. The values pass through the URL so the page stays shareable.

No JS? Fill the form by hand. The geolocation button needs JavaScript.